Weather History for Philadelphia Wings Airport, PA

Change the Weather History Date:

Tuesday, November 13, 2012

  Actual Average (KPNE) Record (KPNE)
Temperature  
Mean Temperature 50 °F -  
Max Temperature 62 °F 52 °F 66 °F (2005)
Min Temperature 37 °F 35 °F 26 °F (1996)
Degree Days  
Heating Degree Days 16    
Moisture  
Dew Point 39 °F    
Average Humidity 78    
Maximum Humidity 94    
Minimum Humidity 57    
Precipitation  
Precipitation 0.17 in - - ()
Sea Level Pressure  
Sea Level Pressure 30.32 in    
Wind  
Wind Speed 7 mph (NW)    
Max Wind Speed 13 mph    
Max Gust Speed 22 mph    
Visibility 9 miles    
Events      
Averages and records for this station are not official NWS values.
T = Trace of Precipitation, MM = Missing Value Source: NWS Daily Summary

Daily Weather History Graph

Daily Weather History Graph

Search for Another Location

Airport:

Trip Planner

Search our weather history database for the weather conditions in past years. The results will help you decide how hot, cold, wet, or windy it might be!

Date:

Astronomy

Nov. 13, 2012 Rise Set
Actual Time 6:44 AM EST 4:45 PM EST
Civil Twilight 6:15 AM EST 5:14 PM EST
Nautical Twilight 5:43 AM EST 5:47 PM EST
Astronomical Twilight 5:11 AM EST 6:19 PM EST
Moon 6:19 AM EST (11/13) 4:36 PM EST (11/13)
Length of Visible Light 10h 58m
Length of Day
10h 00m
Waning Crescent, 0% of the Moon is Illuminated
Nov 13
Waning Crescent
Nov 13
New
Nov 20
First Quarter
Nov 28
Full
Dec 6
Last Quarter

Hourly Weather History & Observations

Time (EST) Temp. Windchill Dew Point Humidity Pressure Visibility Wind Dir Wind Speed Gust Speed Precip Events Conditions
12:15 AM 62.6 °F - 59.0 °F 88% 30.16 in 10.0 mi SSW 10.4 mph 18.4 mph N/A   Overcast
12:35 AM 62.6 °F - 59.0 °F 88% 30.16 in 10.0 mi South 9.2 mph - N/A   Overcast
12:55 AM 62.6 °F - 59.0 °F 88% 30.14 in 10.0 mi South 9.2 mph 16.1 mph N/A   Overcast
1:15 AM 62.6 °F - 59.0 °F 88% 30.13 in 10.0 mi South 9.2 mph - N/A   Overcast
1:35 AM 62.6 °F - 59.0 °F 88% 30.13 in 10.0 mi South 6.9 mph - N/A   Overcast
1:55 AM 62.6 °F - 59.0 °F 88% 30.12 in 10.0 mi SSW 10.4 mph - N/A   Overcast
2:15 AM 62.6 °F - 59.0 °F 88% 30.13 in 10.0 mi SW 8.1 mph - N/A   Overcast
2:35 AM 53.6 °F - 50.0 °F 88% 30.18 in 5.0 mi WNW 10.4 mph 21.9 mph 0.03 in   Overcast
2:55 AM 51.8 °F - 50.0 °F 94% 30.19 in 4.0 mi WNW 12.7 mph 19.6 mph 0.07 in   Overcast
3:15 AM 51.8 °F - 48.2 °F 88% 30.20 in 7.0 mi WNW 5.8 mph 16.1 mph N/A   Overcast
3:35 AM 50.0 °F - 48.2 °F 94% 30.20 in 5.0 mi WNW 4.6 mph - 0.01 in   Overcast
3:55 AM 50.0 °F - 48.2 °F 94% 30.20 in 10.0 mi NW 8.1 mph - 0.01 in   Overcast
4:15 AM 48.2 °F - 44.6 °F 87% 30.21 in 10.0 mi NNW 9.2 mph - N/A   Overcast
4:35 AM 46.4 °F 42.9 °F 44.6 °F 93% 30.22 in 5.0 mi NW 6.9 mph - 0.01 in   Overcast
4:55 AM 46.4 °F 44.3 °F 44.6 °F 93% 30.23 in 10.0 mi NW 4.6 mph - 0.01 in   Overcast
5:15 AM 46.4 °F 43.5 °F 44.6 °F 93% 30.23 in 7.0 mi WNW 5.8 mph - N/A   Overcast
5:35 AM 46.4 °F 42.4 °F 44.6 °F 93% 30.23 in 10.0 mi NNW 8.1 mph - N/A   Overcast
5:55 AM 46.4 °F 44.3 °F 44.6 °F 93% 30.25 in 10.0 mi NW 4.6 mph - N/A   Mostly Cloudy
6:15 AM 46.4 °F 41.9 °F 42.8 °F 87% 30.27 in 7.0 mi NW 9.2 mph 17.3 mph 0.01 in   Overcast
6:35 AM 44.6 °F 39.7 °F 41.0 °F 87% 30.29 in 7.0 mi NW 9.2 mph 17.3 mph 0.01 in   Overcast
6:55 AM 44.6 °F 39.2 °F 41.0 °F 87% 30.31 in 7.0 mi NW 10.4 mph 17.3 mph 0.01 in   Overcast
7:15 AM 44.6 °F 39.2 °F 41.0 °F 87% 30.30 in 10.0 mi NW 10.4 mph 19.6 mph N/A   Overcast
7:35 AM 42.8 °F 39.3 °F 41.0 °F 93% 30.30 in 7.0 mi NNW 5.8 mph - N/A   Overcast
7:55 AM 42.8 °F 40.1 °F 41.0 °F 93% 30.31 in 7.0 mi NW 4.6 mph - 0.01 in   Overcast
8:15 AM 42.8 °F 38.6 °F 41.0 °F 93% 30.33 in 5.0 mi WNW 6.9 mph - 0.01 in   Overcast
8:35 AM 42.8 °F 39.3 °F 41.0 °F 93% 30.33 in 5.0 mi WNW 5.8 mph - 0.04 in   Overcast
8:55 AM 42.8 °F 39.3 °F 41.0 °F 93% 30.33 in 7.0 mi NW 5.8 mph - 0.05 in   Overcast
9:15 AM 42.8 °F 39.3 °F 41.0 °F 93% 30.33 in 10.0 mi NW 5.8 mph - N/A   Overcast
9:35 AM 42.8 °F 38.6 °F 41.0 °F 93% 30.33 in 10.0 mi NW 6.9 mph - 0.01 in   Overcast
9:55 AM 42.8 °F 39.3 °F 41.0 °F 93% 30.34 in 10.0 mi NW 5.8 mph 16.1 mph 0.01 in   Overcast
10:15 AM 42.8 °F 38.0 °F 39.2 °F 87% 30.35 in 10.0 mi NW 8.1 mph - N/A   Mostly Cloudy
10:35 AM 42.8 °F - 39.2 °F 87% 30.35 in 10.0 mi Calm Calm - N/A   Scattered Clouds
11:15 AM 42.8 °F 37.5 °F 37.4 °F 81% 30.35 in 10.0 mi NW 9.2 mph - N/A   Mostly Cloudy
11:35 AM 42.8 °F - 39.2 °F 87% 30.34 in 10.0 mi Calm Calm - N/A   Mostly Cloudy
11:55 AM 42.8 °F 39.3 °F 37.4 °F 81% 30.32 in 10.0 mi North 5.8 mph - N/A   Mostly Cloudy
12:15 PM 44.6 °F 40.2 °F 39.2 °F 81% 30.32 in 10.0 mi NNW 8.1 mph - N/A   Mostly Cloudy
12:35 PM 44.6 °F 43.1 °F 39.2 °F 81% 30.33 in 10.0 mi WNW 3.5 mph - N/A   Scattered Clouds
12:55 PM 44.6 °F 42.2 °F 37.4 °F 76% 30.32 in 10.0 mi WNW 4.6 mph - N/A   Mostly Cloudy
1:15 PM 44.6 °F 42.2 °F 37.4 °F 76% 30.32 in 10.0 mi NNW 4.6 mph - N/A   Mostly Cloudy
1:55 PM 46.4 °F 42.9 °F 35.6 °F 66% 30.32 in 10.0 mi NW 6.9 mph - N/A   Mostly Cloudy
2:15 PM 46.4 °F 44.3 °F 35.6 °F 66% 30.32 in 10.0 mi NNW 4.6 mph - N/A   Scattered Clouds
2:35 PM 46.4 °F 44.3 °F 35.6 °F 66% 30.31 in 10.0 mi North 4.6 mph - N/A   Mostly Cloudy
2:55 PM 46.4 °F 43.5 °F 33.8 °F 62% 30.32 in 10.0 mi North 5.8 mph - N/A   Mostly Cloudy
3:15 PM 46.4 °F 42.4 °F 33.8 °F 62% 30.32 in 10.0 mi North 8.1 mph - N/A   Overcast
3:35 PM 46.4 °F 45.2 °F 33.8 °F 62% 30.33 in 10.0 mi NNW 3.5 mph - N/A   Scattered Clouds
3:55 PM 46.4 °F 44.3 °F 33.8 °F 62% 30.33 in 10.0 mi North 4.6 mph - N/A   Scattered Clouds
4:15 PM 46.4 °F - 33.8 °F 62% 30.34 in 10.0 mi Calm Calm - N/A   Clear
4:35 PM 46.4 °F 45.2 °F 32.0 °F 57% 30.34 in 10.0 mi North 3.5 mph - N/A   Scattered Clouds
4:55 PM 44.6 °F - 33.8 °F 66% 30.35 in 10.0 mi Calm Calm - N/A   Scattered Clouds
5:15 PM 44.6 °F - 32.0 °F 61% 30.36 in 10.0 mi Calm Calm - N/A   Mostly Cloudy
5:35 PM 44.6 °F 43.1 °F 32.0 °F 61% 30.36 in 10.0 mi North 3.5 mph - N/A   Overcast
5:55 PM 44.6 °F 42.2 °F 32.0 °F 61% 30.37 in 10.0 mi North 4.6 mph - N/A   Mostly Cloudy
6:15 PM 42.8 °F 41.1 °F 32.0 °F 66% 30.39 in 10.0 mi North 3.5 mph - N/A   Scattered Clouds
6:35 PM 42.8 °F 41.1 °F 32.0 °F 66% 30.40 in 10.0 mi North 3.5 mph - N/A   Mostly Cloudy
6:55 PM 42.8 °F - 32.0 °F 66% 30.40 in 10.0 mi Calm Calm - N/A   Overcast
7:15 PM 41.0 °F - 32.0 °F 70% 30.41 in 10.0 mi Calm Calm - N/A   Mostly Cloudy
7:35 PM 41.0 °F - 32.0 °F 70% 30.41 in 10.0 mi Calm Calm - N/A   Scattered Clouds
7:55 PM 41.0 °F 38.0 °F 32.0 °F 70% 30.42 in 10.0 mi North 4.6 mph - N/A   Clear
8:15 PM 41.0 °F 37.1 °F 32.0 °F 70% 30.43 in 10.0 mi North 5.8 mph - N/A   Scattered Clouds
8:35 PM 41.0 °F 37.1 °F 30.2 °F 65% 30.44 in 10.0 mi North 5.8 mph - N/A   Scattered Clouds
8:55 PM 41.0 °F 39.0 °F 28.4 °F 61% 30.44 in 10.0 mi North 3.5 mph - N/A   Clear
9:15 PM 41.0 °F - 28.4 °F 61% 30.45 in 10.0 mi Calm Calm - N/A   Clear
9:35 PM 39.2 °F 37.0 °F 28.4 °F 65% 30.45 in 10.0 mi North 3.5 mph - N/A   Clear
9:55 PM 39.2 °F 35.9 °F 28.4 °F 65% 30.45 in 10.0 mi North 4.6 mph - N/A   Clear
10:15 PM 39.2 °F 34.2 °F 28.4 °F 65% 30.45 in 10.0 mi North 6.9 mph - N/A   Clear
10:35 PM 39.2 °F 37.0 °F 28.4 °F 65% 30.45 in 10.0 mi North 3.5 mph - N/A   Clear
10:55 PM 37.4 °F 33.8 °F 28.4 °F 70% 30.45 in 10.0 mi NNW 4.6 mph - N/A   Clear
11:15 PM 37.4 °F 33.8 °F 28.4 °F 70% 30.45 in 10.0 mi North 4.6 mph - N/A   Clear
11:35 PM 37.4 °F 33.8 °F 28.4 °F 70% 30.46 in 10.0 mi NNW 4.6 mph - N/A   Clear
11:55 PM 37.4 °F 33.8 °F 28.4 °F 70% 30.46 in 10.0 mi NNW 4.6 mph - N/A   Clear